Regional Weather Roundup
Issued by NWS

Home | Current Version | Previous Version | Graphics & Text | Print | Product List | Glossary On
Versions: 1 2 3 4 5 6 7 8 9 10 11 12 13 14 15 16 17 18 19 20 21 22 23 24 25 26 27 28 29 30 31 32 33 34 35 36 37 38 39 40 41 42 43 44 45 46 47 48 49 50
000
ASUS43 KLOT 252300
RWRIL

ILLINOIS REGIONAL WEATHER ROUNDUP
NATIONAL WEATHER SERVICE CHICAGO/ROMEOVILLE IL
500 PM CST SUN JAN 25 2015

NOTE: "FAIR" INDICATES FEW OR NO CLOUDS BELOW 12,000 FEET WITH NO
SIGNIFICANT WEATHER AND/OR OBSTRUCTIONS TO VISIBILITY.

* THESE STATIONS ARE NOT UNDER NWS QUALITY CONTROL. THEY ALSO MAY NOT
  REPORT WEATHER SUCH AS PRECIPITATION OR FOG.

ILZ001-002-007-009-015-016-024-260000-
NORTHWEST ILLINOIS

CITY           SKY/WX    TMP DP  RH WIND       PRES   REMARKS
MOLINE         CLOUDY    28  18  66 NE12      29.96R WCI  18
STERLING*      CLOUDY    27  16  63 NE12G18   29.96R WCI  16
$$

ILZ003-004-008-010-011-017-018-260000-
NORTH CENTRAL ILLINOIS

CITY           SKY/WX    TMP DP  RH WIND       PRES   REMARKS
ROCKFORD       MOCLDY    26  13  57 NE16      29.98R WCI  14
$$

ILZ005-006-012>014-019>023-260000-
NORTHEAST ILLINOIS

CITY           SKY/WX    TMP DP  RH WIND       PRES   REMARKS
CHICAGO-OHARE  CLOUDY    27  17  66 NE16G25   29.92R WCI  15
CHICAGO-MIDWAY CLOUDY    29  20  69 NE22      29.91R WCI  15
AURORA         CLOUDY    28  18  66 NE16      29.91R WCI  16
WAUKEGAN       PTCLDY    24  15  68 N13G22    29.95R WCI  12
DUPAGE AIRPORT CLOUDY    26  18  71 NE21G28   29.91R WCI  12
WHEELING       CLOUDY    26  17  68 N14G25    29.95R WCI  14
NORTHERLY ISL    N/A     27  20  75 N23         N/A  WCI  13
$$

LMZ740>746-260000-
SOUTHERN LAKE MICHIGAN

STATION/POSITION SKY/WX   TEMP    WIND        PRES    VSBY  WAVE
                          AIR SEA DIR/SP/G                  HT/PER
                          (F)     (DEG/KT/KT) (MB)    (MI)  (FT/S)
WAUKEGAN HARBOR            26      30/ 24/ 31   N/A
HARRISON CRIB              27      30/ 26/ 31   N/A
BURNHAM HARBOR             27      30/ 15/ 25   N/A
CALUMET HARBOR             27      20/ 18/ 23   N/A
MICHIGAN CITY              26      20/ 22/ 24   N/A
$$

ILZ025>027-034>036-040-047-049-050-058-095>099-260000-
WEST-CENTRAL ILLINOIS

CITY           SKY/WX    TMP DP  RH WIND       PRES   REMARKS
QUINCY         CLOUDY    31  26  82 N26G32    29.90R WCI  17
$$

ILZ028>032-037-038-041>044-048-051>054-059>061-260000-
CENTRAL ILLINOIS

CITY           SKY/WX    TMP DP  RH WIND       PRES   REMARKS
DECATUR        CLOUDY    34  34 100 NE23G29   29.76R WCI  22
PEORIA         CLOUDY    30  24  78 N10G28    29.89R WCI  21
SPRINGFIELD    LGT RAIN  34  30  85 N20G28    29.82R WCI  23
TAYLORVILLE    NOT AVBL
$$

ILZ033-039-045-046-055>057-062-063-260000-
EAST-CENTRAL ILLINOIS

CITY           SKY/WX    TMP DP  RH WIND       PRES   REMARKS
CHAMPAIGN      CLOUDY    33  30  88 NE20G33   29.75R WCI  21
MATTOON        MIX PCPN  35  33  92 N18G25    29.70R FOG     WCI  24
$$

ILZ079-100>102-260000-
SOUTHWEST ILLINOIS

CITY           SKY/WX    TMP DP  RH WIND       PRES   REMARKS
ALTON          CLOUDY    37  36  93 N10G21    29.76R WCI  30
BELLEVILLE     CLOUDY    38  38  99 N20G25    29.73R WCI  29
CAHOKIA*       LGT RAIN  39  36  89 N22       29.76R WCI  29
$$

ILZ064>066-069>071-074>076-080>082-084>086-088>090-092>094-260000-
SOUTH-CENTRAL ILLINOIS

CITY           SKY/WX    TMP DP  RH WIND       PRES   REMARKS
CARBONDALE     LGT RAIN  44  42  93 NW12      29.67R FOG
MARION         RAIN      45  45 100 W12       29.66R
MT. VERNON     CLOUDY    43  37  81 N7        29.67R
$$

ILZ067-068-072-073-078-083-087-091-260000-
SOUTHEAST ILLINOIS

CITY           SKY/WX    TMP DP  RH WIND       PRES   REMARKS
LAWRENCEVILLE  LGT RAIN  40  40 100 N5        29.65R VSB 1
CARMI*         LGT RAIN  45  45 100 CALM      29.62R
$$

ABBREVIATIONS USED IN REMARKS
   TC - TEMPERATURE IN CELSIUS
  WCI - WIND CHILL INDEX
   HX - HEAT INDEX
  VSB - VISIBILITY
$$



USA.gov is the U.S. government's official web portal to all federal, state and local government web resources and services.